Content
SEND FEEDBACK

Daily
Averages
Monthly
Summary
Germany

WITTENBERGE, GERMANY


Home > Europe > Germany
Elevation: 85 feet     Latitude: 53 02N     Longitude: 011 48E

WEATHER
 
SELECT A DAY
Number of Records: 24,650;   Date Range: 3/22/99 - 9/15/14
 
SHARE

PRINT THIS DATA

[ ← Previous Day ]
WEATHER ALMANAC - FEBRUARY 5, 2013
[ Next Day → ]
[ °C ]   °F
Weather ElementAverageHighLow
Temperature34.8 °F39.2 °F (4:20 am)32 °F (11:20 am)
Dewpoint33.3 °F35.6 °F (3:20 am)32 °F (11:20 am)
Humidity94.3 %100 % (1:20 am)87 % (4:20 am)
Barometer29.32 in29.47 in (1:20 am)29.24 in (12:20 pm)
Wind Speed9.9 mph15 mph (1:20 am)
Weather ElementAverage
Visibility5.6 mi
Wind DirectionWSW (245.4 °)

Weather ElementTotal
Precipitation---
Heating Degree Days29.4 (Base 65)
Averaged from 24 records on February 5, 2013
WEATHER CONDITIONS BREAKOUT
WIND DIRECTION BREAKOUT
WEATHER BY HOUR - FEBRUARY 5, 2013
[ °C ]   °F
Local TimeTemperatureDewpointHumidityBarometerVisibilityWind DirectionWind SpeedGust SpeedPrecipitationEventsConditions
1:20 AM33.8 °F33.8 °F100 %29.47 in3.7 miWest (280°)15.0 mphRainLight Rain
2:20 AM35.6 °F33.8 °F93 %29.44 in6.2 miWSW (250°)9.2 mphMostly Cloudy
3:20 AM37.4 °F35.6 °F93 %29.42 in6.2 miWSW (240°)10.4 mphMostly Cloudy
4:20 AM39.2 °F35.6 °F87 %29.39 in6.2 miWSW (240°)12.7 mphMostly Cloudy
5:20 AM37.4 °F33.8 °F87 %29.39 in6.2 miSW (230°)9.2 mphMostly Cloudy
6:20 AM37.4 °F35.6 °F93 %29.36 in6.2 miSW (230°)11.5 mphRainLight Rain
7:20 AM37.4 °F33.8 °F87 %29.33 in6.2 miSW (230°)11.5 mphMostly Cloudy
8:20 AM37.4 °F33.8 °F87 %29.33 in6.2 miSW (230°)11.5 mphMostly Cloudy
9:20 AM35.6 °F33.8 °F93 %29.33 in6.2 miSW (230°)9.2 mphMostly Cloudy
10:20 AM33.8 °F33.8 °F100 %29.27 inSSW (200°)4.6 mphRain-SnowLight Rain Showers
11:20 AM32.0 °F32.0 °F100 %29.27 in0.6 miWSW (250°)3.5 mphSnowHeavy Snow Showers
12:20 PM33.8 °F33.8 °F100 %29.24 in4.3 miWSW (240°)4.6 mphSnowLight Snow Showers
1:20 PM33.8 °F33.8 °F100 %29.24 in6.2 miWest (260°)8.1 mphRain-SnowLight Rain Showers
2:20 PM33.8 °F33.8 °F100 %29.24 in6.2 miWest (270°)11.5 mphMostly Cloudy
3:20 PM35.6 °F33.8 °F93 %29.24 in6.2 miWest (260°)9.2 mphMostly Cloudy
4:20 PM33.8 °F32.0 °F93 %29.27 in6.2 miWest (270°)12.7 mphMostly Cloudy
5:20 PM33.8 °F32.0 °F93 %29.27 in6.2 miWest (260°)10.4 mphMostly Cloudy
6:20 PM33.8 °F32.0 °F93 %29.30 in6.2 miWSW (250°)8.1 mphScattered Clouds
7:20 PM33.8 °F32.0 °F93 %29.30 in6.2 miWSW (250°)12.7 mphMostly Cloudy
8:20 PM32.0 °F32.0 °F100 %29.30 in2.5 miWSW (250°)11.5 mphSnowLight Snow
8:41 PM32.0 °F32.0 °F100 %29.30 in6.2 miWSW (240°)10.4 mphMostly Cloudy
9:20 PM33.8 °F32.0 °F93 %29.30 in6.2 miWSW (240°)10.4 mphMostly Cloudy
10:20 PM33.8 °F32.0 °F93 %29.33 in6.2 miWSW (250°)10.4 mphMostly Cloudy
11:20 PM33.8 °F32.0 °F93 %29.33 in6.2 miWSW (240°)9.2 mphMostly Cloudy
Hourly data recorded from EDOP, located miles away from Wittenberge, Germany







STORIES FROM OUR PARTNERS